#timestamp,LO_Frequency,Hit,StdDev 
1553893215.0,286047000.3,N
1553893215.9,286047000.3,N
1553893235.8,286047002.3,N
1553893255.6,286047001.9,N
1553893275.4,286047001.3,N
1553893295.3,286047001.7,N
1553893315.1,286047004.3,N
1553893335.8,286047001.8,N
1553893355.7,286047004.0,N
1553893375.5,286047003.8,N
1553893395.4,286047006.0,Y
1553893415.2,286047002.4,P
1553893435.0,286047000.4,N
1553893435.9,286047000.4,N
1553893455.8,286047000.6,N
1553893475.6,286047002.3,N
1553893495.4,286047002.8,Y
1553893515.3,286047000.9,P
1553893535.1,286047000.6,P
1553893555.9,286046998.4,P
1553893575.7,286046999.6,N
1553893595.5,286046999.6,N
1553893615.4,286046997.5,N
1553893635.2,286046998.0,N
1553893655.0,286046998.0,N
1553893655.9,286046998.0,N
1553893675.8,286046999.6,N
1553893695.6,286046998.2,N
1553893715.5,286046996.5,N
1553893735.3,286046996.5,N
1553893755.1,286046998.6,N
1553893775.9,286046996.5,N
1553893795.7,286046998.7,N
1553893815.5,286047000.3,N
1553893835.4,286046999.9,N
1553893855.2,286047000.1,N
1553893875.1,286047000.9,N
1553893876.0,286047000.9,N
1553893895.8,286047000.3,N
1553893915.6,286047002.7,N
1553893935.5,286047002.5,N
1553893955.3,286047002.5,N
1553893975.1,286046999.8,N
1553893995.9,286047002.4,N
1553894015.7,286047002.8,N
1553894035.6,286046996.5,N
1553894055.4,286046999.5,N
1553894075.2,286046996.7,N
1553894095.1,286047011.9,Y
1553894096.0,286047001.1,P
1553894115.8,286047002.3,N
1553894135.6,286047005.5,P
1553894155.5,286047004.3,N
1553894175.3,286047002.3,N
1553894195.2,286047000.9,N
1553894215.9,286046997.0,N
1553894235.7,286046997.1,N
1553894255.6,286046998.2,N
1553894275.4,286047000.4,N
1553894295.2,286047000.2,N
1553894315.1,286047002.7,N
1553894316.0,286047002.7,N
1553894335.8,286046999.9,N
1553894355.7,286047004.4,N
1553894375.5,286047001.8,N
1553894395.3,286047004.3,N
1553894415.2,286047002.2,N
1553894435.9,286047006.0,N
1553894455.7,286047002.3,N
1553894475.6,286047000.1,N
1553894495.4,286046998.5,N
1553894515.2,286046998.3,N
1553894535.1,286046998.5,N
1553894536.0,286046998.5,N
1553894555.8,286047000.4,N
1553894575.7,286047000.4,N
1553894595.5,286046998.4,N
1553894615.3,286047001.0,N
1553894635.2,286047001.1,N
1553894655.0,286047002.3,N
1553894655.9,286047002.3,N
1553894675.7,286047002.4,N
1553894695.6,286047001.5,N
1553894715.4,286046999.8,N
1553894735.3,286047001.7,N
1553894755.1,286047000.6,N
1553894775.8,286046996.5,N
1553894795.7,286046996.9,N
1553894815.5,286046996.6,N
1553894835.4,286046999.6,N
1553894855.2,286046999.3,N
1553894875.0,286046998.3,N
1553894875.9,286046998.3,N
1553894895.8,286046998.1,N
1553894915.6,286046997.1,N
1553894935.4,286046997.1,N
1553894955.3,286046996.8,N
1553894975.1,286046999.2,N
1553894995.9,286046998.2,N
1553895015.7,286047000.8,N
1553895035.5,286047002.6,N
1553895055.4,286047000.1,N
1553895075.2,286047001.3,N
1553895095.0,286047004.3,N
1553895096.0,286047004.3,N
1553895115.8,286047000.6,N
1553895165.7,286046999.7,E
1553895175.6,286047002.4,N
1553895195.4,286047003.0,P
1553895215.3,286047005.9,P
1553895235.1,286047004.5,N
1553895236.0,286047004.5,Y
1553895255.8,286047002.0,P
1553895275.7,286047004.0,P
1553895295.5,286047003.8,P
1553895315.3,286047001.4,N
1553895335.2,286047000.5,N
1553895355.0,286047000.7,N
1553895355.9,286047000.7,N
1553895375.8,286047000.1,N
1553895395.6,286047000.1,N
1553895415.4,286047000.4,N
1553895435.3,286047000.4,N
1553895455.1,286047000.5,N
1553895475.8,286046998.7,N
1553895495.7,286046997.6,N
1553895515.5,286046997.6,N
1553895535.4,286046996.6,N
1553895555.2,286046999.3,N
1553895575.0,286046996.6,N
1553895575.9,286046996.6,N
1553895595.8,286046996.9,N
1553895615.6,286046996.8,N
1553895635.4,286046997.4,N
1553895655.3,286046997.1,N
1553895675.1,286046995.5,N
1553895695.9,286046997.3,N
1553895715.7,286046995.0,N
1553895735.5,286046997.5,N
1553895755.4,286046996.7,N
1553895775.2,286046997.1,N
1553895795.0,286046997.2,N
1553895795.9,286046997.2,N
1553895815.8,286046997.4,N
1553895835.6,286046997.8,N
1553895855.5,286046997.6,N
1553895875.3,286046993.9,Y
1553895895.1,286046996.1,P
1553895915.9,286046993.4,P
1553895935.7,286046995.8,N
1553895955.5,286046995.2,N
1553895975.4,286046995.3,Y
1553895995.2,286047002.3,P
1553896015.1,286047001.4,N
1553896016.0,286047001.4,N
1553896035.8,286047001.9,N
1553896055.6,286047002.3,N
1553896075.5,286047001.6,N
1553896095.3,286047002.4,N
1553896115.1,286047000.2,N
1553896135.9,286047000.1,N
1553896155.7,286047000.8,N
1553896175.6,286046998.3,N
1553896195.4,286046999.1,N
1553896215.2,286046998.9,N
1553896235.1,286046998.2,N
1553896236.0,286046998.2,N
1553896255.8,286046998.6,N
1553896275.7,286047000.6,N
1553896295.5,286047000.5,N
1553896315.3,286046998.6,N
1553896335.2,286046998.9,N
1553896355.0,286046998.2,N
1553896355.9,286046998.2,N
1553896375.8,286046996.9,N
1553896395.6,286046997.2,N
1553896415.4,286046997.2,N
1553896435.3,286046997.7,N
1553896455.1,286046998.8,N
1553896475.9,286046997.1,N
1553896495.7,286046997.8,N
1553896515.5,286046997.6,N
1553896535.4,286046997.3,N
1553896555.2,286046997.3,N
1553896575.0,286046997.1,N
1553896575.9,286046997.1,N
1553896595.8,286046999.2,N
1553896615.6,286046999.6,N
1553896635.5,286046996.5,N
1553896655.3,286046997.4,N
1553896675.1,286046997.1,N
1553896695.9,286046999.5,N
1553896715.7,286046999.1,N
1553896735.5,286046997.9,N
1553896755.4,286046995.3,Y
1553896775.2,286046997.2,P
1553896795.1,286046997.1,P
1553896796.0,286046997.1,P
